[[{"header":{"parameterUnit":"m.s-1","parameterCategory":1,"la1":30.2991,"la2":30.254,"lo1":-89.0895,"lo2":-89.0444,"dy":0.0017,"dx":0.0017,"nx":28,"ny":28,"refTime":"2023-04-28T21:00:00:Z","depth":0,"parameterNumber":2,"parameterNumberName":"U-component_of_WINDS"},"data":[0,0,0,0,0,0,0,0,0,0,0,0,0,0,0,0,0,0,0,0,0,0,0,0,0,0,0,0,0,0,0,0,0,0,0,0,0,0,0,0,0,0,0,0,0,0,0,0,0,0,0,0,0,0,0,0,0,0,2.3432,2.3437,0,2.3948,2.3954,2.3959,2.4189,2.4188,2.4188,2.4187,2.4713,2.4727,2.4742,0,0,0,0,0,0,0,0,0,0,0,0,0,2.264,2.2654,2.3431,2.3438,2.3444,2.3947,2.3954,2.3961,2.4189,2.4188,2.4187,2.4187,2.4708,2.4725,2.4743,0,0,0,0,0,0,0,0,0,0,0,0,0,2.3052,2.2658,2.343,2.3619,2.3641,2.3945,2.3954,2.3963,2.4189,2.4188,2.4187,2.4186,2.4702,2.4724,2.4745,2.49,0,0,2.4812,2.4822,0,0,0,0,0,0,0,0,2.3029,2.3081,2.3585,2.3606,2.3631,2.4003,2.3868,2.4277,2.4189,2.3981,2.4187,2.4186,2.4477,2.4518,2.4617,2.4925,2.4948,2.4814,2.4828,2.4837,2.4843,0,0,0,0,0,0,0,2.3,2.306,2.3636,2.3591,2.362,2.3676,2.3734,2.3947,2.4228,2.3999,2.4017,2.4075,2.449,2.4595,2.4631,2.4955,2.4814,2.4833,2.4847,2.4855,2.5416,2.5417,0,0,0,0,0,0,2.2941,2.3035,2.3619,2.3651,2.3322,2.3691,2.3756,2.3885,2.4227,2.4278,2.4075,2.4084,2.4558,2.4605,2.465,2.4855,2.4837,2.4857,2.487,2.5414,2.5416,2.5418,0,0,0,0,0,0,2.2923,2.2991,2.3598,2.3348,2.343,2.3706,2.3849,2.3895,2.4001,2.4284,2.4335,2.4131,2.4559,2.4619,2.4837,2.4876,2.4867,2.4887,2.5412,2.5415,2.5417,2.5264,0,0,0,0,0,0,2.2899,2.2983,2.3046,2.3348,2.3442,2.3777,2.3852,2.3906,2.4038,2.4054,2.435,2.4398,2.4563,2.4802,2.4858,2.4906,2.4904,2.541,2.5413,2.5416,2.5266,2.5261,2.5256,0,0,0,0,0,2.287,2.2982,2.3048,2.3117,2.3527,2.3779,2.3833,2.4021,2.404,2.4106,2.4287,2.4389,2.4861,2.4823,2.4887,2.4942,2.5408,2.5412,2.5416,2.5269,2.5262,2.5256,0,0,0,0,0,0,2.2677,2.3025,2.3102,2.3315,2.3515,2.3817,2.3905,2.4007,2.4206,2.4213,2.4437,2.4501,2.4699,2.4843,2.4793,2.511,2.5144,2.516,2.5009,2.5005,2.5,2.4962,2.4922,0,0,0,0,0,2.2659,2.2836,2.313,2.3289,2.3386,2.3627,2.3744,2.3871,2.4088,2.4174,2.4372,2.4577,2.4772,2.4896,2.5092,2.5287,2.5355,2.5356,2.5351,2.5345,2.5358,2.5471,2.5476,2.5431,2.5431,2.5431,0,0,2.2624,2.2836,2.2934,2.3255,2.3426,2.3603,2.3697,2.3881,2.4014,2.4202,2.442,2.4571,2.4815,2.5021,2.5122,2.5147,2.5384,2.535,2.5343,2.536,2.5476,2.548,2.5483,2.5433,2.5433,2.5433,0,0,2.2652,2.2829,2.2982,2.315,2.3407,2.3567,2.3602,2.3889,2.3997,2.4219,2.4363,2.4523,2.4855,2.5023,2.5151,2.5238,2.5339,2.5295,2.5268,2.5376,2.5379,2.5384,2.5415,2.5424,2.5306,2.5306,2.5306,0,2.2576,2.285,2.3047,2.3223,2.336,2.3536,2.3692,2.3845,2.4152,2.4241,2.4264,2.4683,2.486,2.5108,2.5129,2.5227,2.5275,2.5264,2.5363,2.5369,2.5376,2.5409,2.542,2.5299,2.53,2.53,2.5301,0,2.2744,2.2931,2.3023,2.3315,2.3462,2.3626,2.3847,2.3971,2.4084,2.424,2.4462,2.468,2.4922,2.499,2.5102,2.5254,2.5261,2.532,2.5359,2.537,2.5405,2.5419,2.5289,2.5291,2.5293,2.5295,0,0,2.2669,2.3065,2.3096,2.323,2.3525,2.3673,2.3843,2.4081,2.4183,2.4387,2.4536,2.4811,2.4867,2.5012,2.5144,2.5239,2.5294,2.5287,2.5296,2.5282,2.5474,2.5429,2.544,2.5361,2.5364,2.5366,2.5454,0,2.2738,2.3054,2.3235,2.3476,2.365,2.3819,2.3968,2.4163,2.4313,2.4482,2.4646,2.4838,2.4897,2.4986,2.5087,2.5265,2.5335,2.5261,2.5501,2.5508,2.5437,2.5459,2.5413,2.5485,2.5469,2.5471,2.5473,0,2.2862,2.3063,2.3321,2.3595,2.3675,2.3805,2.4037,2.4196,2.442,2.4522,2.4682,2.4814,2.4999,2.502,2.5279,2.5224,2.5332,2.5434,2.5441,2.5473,2.5492,2.5492,2.5513,2.5524,2.5496,2.5494,2.5492,0,2.2782,2.3117,2.3315,2.3424,2.3748,2.3836,2.3974,2.4198,2.4328,2.4529,2.4616,2.4834,2.4954,2.512,2.5306,2.5304,2.5545,2.5582,2.5635,2.563,2.5681,2.5676,2.5721,2.5746,2.5746,2.5746,2.5745,0,2.2842,2.2993,2.3283,2.3405,2.3579,2.3783,2.395,2.4102,2.4298,2.4452,2.4609,2.4749,2.4986,2.5155,2.5301,2.5492,2.5545,2.5632,2.5669,2.562,2.5608,2.5696,2.5696,2.5749,2.5748,2.5747,2.5747,0,2.2784,2.2984,2.3211,2.3498,2.3573,2.3689,2.3934,2.4058,2.4213,2.4405,2.4462,2.4707,2.4914,2.5115,2.5392,2.549,2.568,2.5729,2.5605,2.5626,2.5668,2.5661,2.5772,2.5797,2.5802,2.5801,2.5801,0,2.281,2.2931,2.323,2.3344,2.3479,2.3661,2.3795,2.3999,2.4131,2.4394,2.4486,2.4704,2.489,2.5212,2.5414,2.5626,2.5682,2.5706,2.5715,2.5661,2.5685,2.5676,2.5689,2.5701,2.57,2.5699,2.5699,0,2.2836,2.2928,2.3115,2.3336,2.3491,2.3675,2.3864,2.3948,2.4188,2.4328,2.4542,2.4685,2.4968,2.5182,2.5417,2.5559,2.5669,2.5693,2.5717,2.5669,2.5593,2.5636,2.5592,2.5691,2.5692,2.5692,2.5693,2.5693,2.2824,2.2938,2.3166,2.3368,2.3531,2.3704,2.3834,2.4005,2.4187,2.4434,2.4542,2.4757,2.4977,2.5304,2.5443,2.5613,2.5641,2.5674,2.5684,2.5689,2.5679,2.5562,2.5656,2.5657,2.5657,2.5658,2.5658,0,2.2859,2.3013,2.3197,2.3456,2.3614,2.3702,2.3915,2.4042,2.4229,2.4425,2.4604,2.4848,2.5056,2.5272,2.5492,2.5587,2.5642,2.5638,2.5634,2.5665,2.5642,2.56,2.5589,2.5589,2.5589,2.5589,2.5589,2.5589,2.2896,2.3095,2.3213,2.3493,2.3647,2.386,2.3973,2.4132,2.429,2.4555,2.4729,2.4868,2.5072,2.5308,2.5502,2.556,2.5634,2.5615,2.5687,2.5662,2.5667,2.5671,2.5633,2.5629,2.5629,2.5698,2.5698,2.5699]},{"header":{"parameterUnit":"m.s-1","parameterCategory":1,"la1":30.2991,"la2":30.254,"lo1":-89.0895,"lo2":-89.0444,"dy":0.0017,"dx":0.0017,"nx":28,"ny":28,"refTime":"2023-04-28T21:00:00:Z","depth":0,"parameterNumber":3,"parameterNumberName":"V-component_of_WINDS"},"data":[0,0,0,0,0,0,0,0,0,0,0,0,0,0,0,0,0,0,0,0,0,0,0,0,0,0,0,0,0,0,0,0,0,0,0,0,0,0,0,0,0,0,0,0,0,0,0,0,0,0,0,0,0,0,0,0,0,0,4.407,4.4073,0,4.4309,4.4311,4.4314,4.4316,4.4313,4.431,4.4307,4.4547,4.4556,4.4565,0,0,0,0,0,0,0,0,0,0,0,0,0,4.361,4.3618,4.407,4.4073,4.4076,4.4308,4.4312,4.4315,4.4317,4.4313,4.4309,4.4306,4.4544,4.4555,4.4566,0,0,0,0,0,0,0,0,0,0,0,0,0,4.3825,4.3621,4.4069,4.4105,4.4111,4.4308,4.4312,4.4316,4.4317,4.4313,4.4308,4.4304,4.4541,4.4554,4.4568,4.4744,0,0,4.461,4.4616,0,0,0,0,0,0,0,0,4.3813,4.3842,4.4097,4.4103,4.4109,4.4278,4.4237,4.4459,4.4318,4.4239,4.4307,4.4302,4.4461,4.4481,4.4536,4.4755,4.4766,4.4611,4.462,4.4626,4.4629,0,0,0,0,0,0,0,4.3798,4.3832,4.4164,4.41,4.4108,4.4107,4.4132,4.4279,4.4372,4.4245,4.4246,4.4274,4.4464,4.4522,4.4541,4.4769,4.4611,4.4623,4.4632,4.4637,4.5144,4.5149,0,0,0,0,0,0,4.3777,4.3819,4.4157,4.4171,4.3947,4.4119,4.4148,4.4228,4.4371,4.4388,4.4278,4.4274,4.4501,4.4525,4.455,4.4767,4.4625,4.4638,4.4646,4.5139,4.5146,4.5151,0,0,0,0,0,0,4.3767,4.3807,4.4147,4.3996,4.4039,4.4132,4.4223,4.4236,4.4295,4.4396,4.4412,4.4322,4.4498,4.453,4.4696,4.4775,4.4645,4.4657,4.5133,4.5141,4.5148,4.5201,0,0,0,0,0,0,4.3754,4.3803,4.3873,4.3997,4.4047,4.4291,4.4227,4.4244,4.4319,4.4315,4.4441,4.4457,4.4497,4.4675,4.471,4.4792,4.4668,4.5127,4.5137,4.5146,4.5193,4.521,4.5224,0,0,0,0,0,4.3737,4.3878,4.3877,4.3917,4.4137,4.4296,4.4324,4.4369,4.4325,4.4395,4.446,4.4453,4.476,4.4692,4.4731,4.4818,4.5122,4.5134,4.5145,4.5186,4.5206,4.5224,0,0,0,0,0,0,4.3759,4.3895,4.3895,4.408,4.4177,4.4296,4.4386,4.4389,4.4499,4.4491,4.454,4.4568,4.4734,4.4792,4.4714,4.4996,4.4935,4.4955,4.4953,4.4973,4.4989,4.4973,4.468,0,0,0,0,0,4.3786,4.3906,4.4016,4.4169,4.4217,4.4293,4.4364,4.439,4.4491,4.4532,4.4609,4.4706,4.4824,4.4901,4.5016,4.5199,4.5227,4.5278,4.5294,4.5306,4.5324,4.5425,4.545,4.5189,4.5189,4.5189,0,0,4.3842,4.393,4.4003,4.4176,4.4254,4.4375,4.4328,4.4458,4.4549,4.4551,4.4714,4.4772,4.4884,4.506,4.5141,4.5113,4.5401,4.5321,4.533,4.5342,4.544,4.5464,4.5486,4.5197,4.5196,4.5195,0,0,4.4007,4.4086,4.4222,4.4301,4.4419,4.4468,4.45,4.4619,4.4659,4.4822,4.4826,4.4932,4.5135,4.5215,4.5282,4.5473,4.5471,4.5508,4.5592,4.569,4.5711,4.5729,4.5799,4.5823,4.5525,4.5525,4.5525,0,4.4062,4.4248,4.4291,4.4423,4.4498,4.4506,4.4643,4.4716,4.4865,4.4916,4.4883,4.5137,4.5213,4.5407,4.5454,4.5507,4.5545,4.5496,4.5704,4.5723,4.5741,4.5808,4.5834,4.5529,4.5528,4.5528,4.5528,0,4.4309,4.4437,4.4532,4.4678,4.4763,4.4897,4.4959,4.5039,4.5056,4.5108,4.5272,4.5363,4.5496,4.5542,4.556,4.5739,4.5719,4.5694,4.5635,4.5769,4.5833,4.5859,4.5534,4.5533,4.5532,4.5531,0,0,4.45,4.4666,4.47,4.4766,4.4895,4.4994,4.5126,4.5257,4.5326,4.5426,4.5539,4.5708,4.5686,4.5762,4.5787,4.5873,4.602,4.5838,4.5842,4.5871,4.6224,4.6244,4.6273,4.6018,4.6023,4.6027,4.6215,0,4.4681,4.492,4.4961,4.5169,4.5287,4.5294,4.5408,4.5499,4.555,4.5656,4.571,4.5831,4.5792,4.5838,4.5922,4.5984,4.6092,4.5971,4.6123,4.6128,4.6099,4.6306,4.6328,4.6502,4.624,4.6244,4.6247,0,4.4926,4.5035,4.5255,4.5367,4.5418,4.5521,4.5643,4.5745,4.5846,4.5877,4.596,4.5975,4.6111,4.6042,4.6229,4.6146,4.621,4.6249,4.6257,4.6275,4.6199,4.6333,4.6558,4.6586,4.6287,4.6284,4.6281,0,4.5046,4.5246,4.5404,4.5459,4.5594,4.5666,4.5725,4.5822,4.5897,4.6002,4.6052,4.6171,4.6237,4.6328,4.6374,4.6319,4.6558,4.6493,4.6588,4.6587,4.6641,4.6638,4.6883,4.6677,4.6676,4.6676,4.6675,0,4.5247,4.5381,4.546,4.5557,4.5707,4.5751,4.5898,4.5955,4.604,4.6147,4.6158,4.6258,4.6311,4.6418,4.6454,4.6604,4.6633,4.6661,4.667,4.6663,4.666,4.6708,4.6698,4.6683,4.6681,4.668,4.6679,0,4.5409,4.5466,4.5639,4.5751,4.5782,4.5888,4.5983,4.6076,4.6124,4.6259,4.6293,4.6369,4.6496,4.6549,4.6704,4.6728,4.6901,4.6899,4.6868,4.6871,4.6963,4.6955,4.7251,4.7293,4.7056,4.7058,4.706,0,4.5535,4.5639,4.5761,4.5834,4.5896,4.6013,4.609,4.6135,4.6214,4.6336,4.6414,4.6541,4.6645,4.6846,4.6914,4.7032,4.7035,4.713,4.7053,4.7042,4.7039,4.7034,4.7045,4.7146,4.7148,4.715,4.7151,0,4.5753,4.5776,4.5887,4.6008,4.6099,4.6196,4.6291,4.6349,4.6408,4.6496,4.6626,4.6706,4.6864,4.699,4.7111,4.717,4.7171,4.7174,4.7203,4.7199,4.7177,4.7192,4.691,4.7169,4.7167,4.7166,4.7165,4.7164,4.5904,4.5996,4.6097,4.6219,4.6295,4.6382,4.6476,4.6535,4.6644,4.6777,4.6796,4.6934,4.703,4.7194,4.7257,4.7365,4.7341,4.7382,4.7393,4.7403,4.741,4.7157,4.7387,4.7386,4.7386,4.7385,4.7385,0,4.6125,4.6189,4.6301,4.6433,4.6529,4.652,4.6623,4.6704,4.6826,4.6916,4.7018,4.7166,4.7287,4.7363,4.7484,4.7556,4.7559,4.7586,4.7584,4.7597,4.7424,4.7388,4.7582,4.7582,4.7582,4.7581,4.7581,4.7581,4.6252,4.6408,4.6442,4.6634,4.6697,4.6834,4.6894,4.6974,4.7045,4.7211,4.7312,4.736,4.7444,4.7571,4.7681,4.77,4.7745,4.7774,4.7792,4.7629,4.7609,4.759,4.7557,4.7783,4.7783,4.7957,4.7959,4.796]}]]